Alamosa, CO

3:50 PM MDT on August 18, 2019 (GMT -0600)
San Luis Valley Regional / Bergman Field

Weather History for KALS - June, 2019

Change the Weather History Date:

Tuesday, June 11, 2019

  Actual Average Record
Temperature  
Mean Temperature 60 °F 58 °F  
Max Temperature 80 °F 78 °F 89 °F (1981)
Min Temperature 39 °F 39 °F 29 °F (1963)
Degree Days  
Heating Degree Days 5 7  
Month to date heating degree days 84 88  
Since 1 June heating degree days 84 88  
Since 1 July heating degree days 8509 8514  
Cooling Degree Days 0 0  
Month to date cooling degree days 0 0  
Year to date cooling degree days 0 0  
Since 1 June cooling degree days 0 0  
Growing Degree Days 10 (Base 50)    
Moisture  
Dew Point 28 °F    
Average Humidity 49    
Maximum Humidity 89    
Minimum Humidity 8    
Precipitation  
Precipitation 0.00 in 0.01 in 0.19 in (1957)
Month to date precipitation 0.15 0.16  
Year to date precipitation 4.84 2.38  
Snow  
Snow 0.00 in 0.00 in 0.00 in (2002)
Month to date snowfall 0.0 0.0  
Since 1 June snowfall 0.0 0.0  
Since 1 July snowfall 54.9 27.6  
Snow Depth 0.00 in    
Sea Level Pressure  
Sea Level Pressure 30.09 in    
Wind  
Wind Speed 10 mph (NE)    
Max Wind Speed 23 mph    
Max Gust Speed 35 mph    
Visibility 10 miles    
Events      
T = Trace of Precipitation, MM = Missing Value Source: NWS Daily Summary

Daily Weather History Graph

Daily Weather History Graph

Search for Another Location

Airport or City:

Astronomy

Jun. 11, 2019 Rise Set
Actual Time 5:42 AM MDT 8:24 PM MDT
Civil Twilight 5:11 AM MDT 8:55 PM MDT
Nautical Twilight 4:32 AM MDT 9:34 PM MDT
Astronomical Twilight 3:49 AM MDT 10:17 PM MDT
Moon 2:35 PM MDT (6/11) 2:18 AM MDT (6/11)
Length of Visible Light 15h 44m
Length of Day
14h 42m
Waxing Gibbous, 67% of the Moon is Illuminated
Jun 11
Waxing Gibbous
Jun 17
Full
Jun 25
Last Quarter
Jul 2
New
Jul 9
First Quarter

Hourly Weather History & Observations

Time (MDT) Temp. Windchill Dew Point Humidity Pressure Visibility Wind Dir Wind Speed Gust Speed Precip Events Conditions
12:52 AM 48.0 °F - 41.0 °F 77% 30.19 in 10.0 mi East 4.6 mph - N/A   Partly Cloudy
1:52 AM 46.0 °F 43.1 °F 39.0 °F 76% 30.17 in 10.0 mi East 5.8 mph - N/A   Clear
2:52 AM 46.0 °F 43.1 °F 39.0 °F 76% 30.15 in 10.0 mi SSE 5.8 mph - N/A   Clear
3:52 AM 44.1 °F 40.8 °F 39.0 °F 82% 30.15 in 10.0 mi East 5.8 mph - N/A   Clear
4:52 AM 41.0 °F - 37.0 °F 86% 30.17 in 10.0 mi Calm Calm - N/A   Clear
5:52 AM 43.0 °F 41.3 °F 39.0 °F 86% 30.18 in 10.0 mi South 3.5 mph - N/A   Clear
6:52 AM 46.0 °F - 39.9 °F 79% 30.19 in 10.0 mi Calm Calm - N/A   Clear
7:52 AM 51.1 °F - 42.1 °F 71% 30.19 in 10.0 mi Calm Calm - N/A   Clear
8:52 AM 57.0 °F - 43.0 °F 59% 30.18 in 10.0 mi North - - N/A   Clear
9:52 AM 63.0 °F - 39.9 °F 43% 30.14 in 10.0 mi SSW 5.8 mph - N/A   Clear
10:52 AM 66.9 °F - 32.0 °F 27% 30.12 in 10.0 mi North - - N/A   Clear
11:52 AM 72.0 °F - 25.0 °F 17% 30.09 in 10.0 mi North - - N/A   Clear
12:52 PM 73.9 °F - 19.0 °F 13% 30.07 in 10.0 mi North 10.4 mph - N/A   Clear
1:52 PM 77.0 °F - 18.0 °F 11% 30.04 in 10.0 mi North 12.7 mph 18.4 mph N/A   Clear
2:52 PM 77.0 °F - 18.0 °F 11% 30.02 in 10.0 mi Variable 6.9 mph 17.3 mph N/A   Clear
3:52 PM 79.0 °F - 14.0 °F 9% 30.00 in 10.0 mi North 10.4 mph 21.9 mph N/A   Clear
4:52 PM 79.0 °F - 12.9 °F 8% 30.00 in 10.0 mi NNW 8.1 mph - N/A   Clear
5:52 PM 77.0 °F - 12.0 °F 8% 29.99 in 10.0 mi North 21.9 mph 28.8 mph N/A   Clear
6:52 PM 73.9 °F - 14.0 °F 10% 30.00 in 10.0 mi NNW 19.6 mph 31.1 mph N/A   Clear
7:52 PM 70.0 °F - 17.1 °F 13% 30.00 in 10.0 mi North 17.3 mph 27.6 mph N/A   Clear
8:52 PM 66.0 °F - 19.0 °F 17% 30.02 in 10.0 mi North - - N/A   Clear
9:52 PM 61.0 °F - 21.9 °F 22% 30.06 in 10.0 mi South 5.8 mph - N/A   Clear
10:52 PM 60.1 °F - 27.0 °F 28% 30.08 in 10.0 mi East 11.5 mph 17.3 mph N/A   Clear
11:52 PM 57.0 °F - 32.0 °F 39% 30.07 in 10.0 mi ESE 19.6 mph 28.8 mph N/A   Clear